Weather History for Cherokee, IA

Change the Weather History Date:

Thursday, April 3, 2014

  Actual Average Record
Temperature  
Mean Temperature 34 °F -  
Max Temperature 39 °F 52 °F 85 °F (1981)
Min Temperature 30 °F 29 °F -8 °F (1975)
Degree Days  
Heating Degree Days 30    
Moisture  
Dew Point 34 °F    
Average Humidity 95    
Maximum Humidity 100    
Minimum Humidity 83    
Precipitation  
Precipitation 0.11 in - - ()
Sea Level Pressure  
Sea Level Pressure 29.79 in    
Wind  
Wind Speed 10 mph (NE)    
Max Wind Speed 15 mph    
Max Gust Speed 23 mph    
Visibility 5 miles    
Events Rain , Snow    
Averages and records for this station are not official NWS values.
T = Trace of Precipitation, MM = Missing Value Source: NWS Daily Summary

Daily Weather History Graph

Daily Weather History Graph

Search for Another Location

Airport:

Trip Planner

Search our weather history database for the weather conditions in past years. The results will help you decide how hot, cold, wet, or windy it might be!

Date:

Astronomy

Apr. 03, 2014 Rise Set
Actual Time 7:00 AM CDT 7:50 PM CDT
Civil Twilight 6:32 AM CDT 8:19 PM CDT
Nautical Twilight 5:58 AM CDT 8:53 PM CDT
Astronomical Twilight 5:23 AM CDT 9:28 PM CDT
Moon 9:26 AM CDT (4/3) No Moon Set
Length of Visible Light 13h 47m
Length of Day
12h 49m
Waxing Crescent, 17% of the Moon is Illuminated
Apr 3
Waxing Crescent
Apr 7
First Quarter
Apr 15
Full
Apr 22
Last Quarter
Apr 29
New

Hourly Weather History & Observations

Time (CDT) Temp. Windchill Dew Point Humidity Pressure Visibility Wind Dir Wind Speed Gust Speed Precip Events Conditions
12:15 AM 39.2 °F 30.8 °F 34.7 °F 84% 29.85 in 10.0 mi ENE 15.0 mph - N/A   Overcast
12:35 AM 39.4 °F 31.8 °F 34.7 °F 83% 29.85 in 10.0 mi ENE 12.7 mph 19.6 mph N/A   Overcast
12:55 AM 39.4 °F 32.3 °F 34.9 °F 84% 29.83 in 10.0 mi ENE 11.5 mph 20.7 mph N/A   Overcast
1:15 AM 39.4 °F 32.7 °F 34.9 °F 84% 29.85 in 10.0 mi ENE 10.4 mph 19.6 mph N/A   Overcast
1:35 AM 39.2 °F 35.0 °F 34.9 °F 84% 29.85 in 10.0 mi ENE 5.8 mph - N/A   Overcast
1:55 AM 39.2 °F 35.0 °F 34.7 °F 84% 29.85 in 10.0 mi NE 5.8 mph - N/A   Overcast
2:15 AM 39.2 °F 33.6 °F 34.7 °F 84% 29.83 in 10.0 mi NE 8.1 mph - N/A   Overcast
2:35 AM 38.8 °F 33.2 °F 34.7 °F 85% 29.85 in 10.0 mi NE 8.1 mph - N/A   Overcast
2:55 AM 38.7 °F 32.9 °F 34.5 °F 85% 29.83 in 10.0 mi NE 8.1 mph - N/A   Overcast
3:15 AM 38.3 °F 33.2 °F 34.2 °F 85% 29.83 in 10.0 mi NE 6.9 mph - N/A   Overcast
3:35 AM 37.9 °F 32.1 °F 34.2 °F 86% 29.82 in 10.0 mi NE 8.1 mph - N/A   Overcast
3:55 AM 37.9 °F 30.9 °F 34.3 °F 87% 29.83 in 10.0 mi NE 10.4 mph - N/A   Overcast
4:15 AM 37.4 °F 30.3 °F 34.0 °F 87% 29.80 in 7.0 mi NE 10.4 mph - N/A   Overcast
4:35 AM 36.9 °F 30.7 °F 33.8 °F 89% 29.82 in 5.0 mi NE 8.1 mph - N/A   Overcast
4:55 AM 36.7 °F 29.9 °F 33.8 °F 89% 29.82 in 4.0 mi NE 9.2 mph - N/A   Overcast
5:15 AM 36.7 °F 28.9 °F 34.2 °F 91% 29.81 in 4.0 mi ENE 11.5 mph - N/A   Overcast
5:35 AM 36.5 °F 28.2 °F 34.0 °F 91% 29.81 in 2.5 mi ENE 12.7 mph 19.6 mph N/A Rain Light Rain
5:55 AM 36.0 °F 28.0 °F 33.8 °F 92% 29.81 in 3.0 mi ENE 11.5 mph 19.6 mph N/A   Overcast
6:15 AM 35.8 °F 28.8 °F 34.0 °F 93% 29.82 in 5.0 mi ENE 9.2 mph 17.3 mph N/A   Overcast
6:35 AM 35.8 °F 28.3 °F 34.0 °F 93% 29.82 in 7.0 mi ENE 10.4 mph - N/A   Overcast
7:15 AM 35.2 °F 28.1 °F 33.8 °F 94% 29.79 in 7.0 mi NE 9.2 mph 21.9 mph N/A   Overcast
7:35 AM 35.1 °F 26.9 °F 33.6 °F 94% 29.81 in 10.0 mi ENE 11.5 mph 17.3 mph N/A   Overcast
7:55 AM 34.9 °F 26.2 °F 33.8 °F 96% 29.81 in 10.0 mi ENE 12.7 mph 18.4 mph N/A   Overcast
8:15 AM 35.1 °F 26.9 °F 34.0 °F 96% 29.81 in 7.0 mi NE 11.5 mph - N/A   Overcast
8:35 AM 34.7 °F 25.9 °F 33.4 °F 95% 29.81 in 5.0 mi ENE 12.7 mph 18.4 mph N/A   Overcast
8:55 AM 34.3 °F 25.0 °F 33.3 °F 96% 29.80 in 5.0 mi ENE 13.8 mph 17.3 mph N/A   Overcast
9:10 AM 34.7 °F 26.4 °F 33.8 °F 97% 29.80 in 5.0 mi ENE 11.5 mph 17.3 mph N/A   Overcast
9:35 AM 34.3 °F 27.0 °F 33.4 °F 97% 29.81 in 4.0 mi ENE 9.2 mph - N/A   Overcast
9:55 AM 34.3 °F 28.4 °F 33.8 °F 98% 29.81 in 5.0 mi NE 6.9 mph - N/A   Overcast
10:15 AM 34.5 °F 27.3 °F 33.8 °F 97% 29.81 in 4.0 mi NE 9.2 mph - N/A   Overcast
10:35 AM 34.7 °F 28.1 °F 34.0 °F 97% 29.81 in 4.0 mi NE 8.1 mph - N/A   Overcast
10:55 AM 34.9 °F 27.7 °F 34.2 °F 97% 29.81 in 3.0 mi NE 9.2 mph - N/A   Light Drizzle
11:15 AM 35.1 °F 27.4 °F 34.7 °F 99% 29.79 in 5.0 mi NNE 10.4 mph - N/A   Overcast
11:35 AM 35.6 °F 29.2 °F 35.1 °F 98% 29.79 in 5.0 mi NE 8.1 mph 16.1 mph N/A   Overcast
11:55 AM 35.1 °F 28.6 °F 34.7 °F 99% 29.80 in 7.0 mi NE 8.1 mph - N/A   Overcast
12:15 PM 35.4 °F 29.0 °F 34.7 °F 97% 29.79 in 7.0 mi NNE 8.1 mph - N/A   Overcast
12:50 PM 35.1 °F 27.9 °F 34.7 °F 99% 29.78 in 4.0 mi NE 9.2 mph - N/A Rain Rain
1:15 PM 35.2 °F 28.1 °F 34.7 °F 98% 29.77 in 4.0 mi NE 9.2 mph - N/A   Light Drizzle
1:35 PM 35.2 °F 28.1 °F 34.7 °F 98% 29.76 in 3.0 mi NNE 9.2 mph - N/A Rain Light Rain
1:55 PM 35.2 °F 28.8 °F 34.9 °F 99% 29.76 in 2.5 mi NNE 8.1 mph - N/A   Drizzle
2:15 PM 35.6 °F 28.0 °F 35.1 °F 98% 29.75 in 2.5 mi NNE 10.4 mph - N/A Rain Light Rain
2:35 PM 35.6 °F 28.6 °F 35.1 °F 98% 29.74 in 3.0 mi NNE 9.2 mph - N/A Rain Light Rain
2:55 PM 35.2 °F 29.5 °F 34.9 °F 99% 29.75 in 4.0 mi North 6.9 mph - N/A Rain Light Rain
3:15 PM 35.1 °F 26.9 °F 34.7 °F 99% 29.74 in 3.0 mi NNE 11.5 mph - N/A   Light Drizzle
3:35 PM 34.9 °F 29.0 °F 34.7 °F 99% 29.75 in 2.5 mi NNE 6.9 mph - N/A Rain Light Rain
3:55 PM 34.9 °F 27.7 °F 34.7 °F 99% 29.74 in 3.0 mi NNE 9.2 mph - N/A Rain Light Rain
4:15 PM 34.9 °F 27.7 °F 34.7 °F 99% 29.75 in 4.0 mi North 9.2 mph - N/A Rain Light Rain
4:35 PM 34.9 °F 27.1 °F 34.7 °F 99% 29.73 in 3.0 mi NNE 10.4 mph 16.1 mph N/A Rain Rain
4:55 PM 34.7 °F 25.1 °F 34.3 °F 99% 29.71 in 7.0 mi NNE 15.0 mph - N/A Rain Rain
5:15 PM 34.0 °F 26.0 °F 33.8 °F 99% 29.72 in 2.5 mi NNE 10.4 mph 16.1 mph 0.05 in Rain Light Rain
5:35 PM 34.0 °F 24.6 °F 33.8 °F 99% 29.74 in 5.0 mi North 13.8 mph - 0.05 in Rain Rain
5:55 PM 33.8 °F 27.0 °F 33.6 °F 99% 29.74 in 2.5 mi North 8.1 mph - 0.05 in Rain Rain
6:15 PM 33.4 °F 25.9 °F 33.3 °F 99% 29.75 in 3.0 mi North 9.2 mph - N/A Rain Light Rain
6:35 PM 33.1 °F 24.9 °F 32.9 °F 99% 29.75 in 3.0 mi North 10.4 mph - 0.01 in   Light Drizzle
6:55 PM 32.9 °F 25.3 °F 32.9 °F 100% 29.76 in 1.8 mi NNE 9.2 mph - 0.01 in Snow Light Snow
7:15 PM 32.9 °F 25.3 °F 32.5 °F 99% 29.76 in 1.5 mi North 9.2 mph - 0.01 in Snow Light Snow
7:35 PM 32.4 °F 24.6 °F 32.4 °F 100% 29.76 in 1.5 mi NNE 9.2 mph - 0.01 in Snow Light Snow
7:55 PM 32.4 °F 26.0 °F 32.4 °F 100% 29.77 in 2.5 mi North 6.9 mph - 0.02 in Snow Light Snow
8:15 PM 32.4 °F 24.0 °F 32.4 °F 100% 29.77 in 3.0 mi North 10.4 mph - N/A Snow Light Snow
8:55 PM 32.2 °F 23.2 °F 32.2 °F 100% 29.76 in 5.0 mi North 11.5 mph - 0.01 in Snow Light Snow
9:15 PM 32.0 °F 23.0 °F 32.0 °F 100% 29.77 in 4.0 mi North 11.5 mph - 0.01 in Snow Light Snow
9:35 PM 32.0 °F 22.1 °F 32.0 °F 100% 29.75 in 2.5 mi North 13.8 mph 19.6 mph 0.01 in Snow Light Snow
11:15 PM 30.9 °F 21.2 °F 30.9 °F 100% 29.75 in 1.2 mi North 12.7 mph 18.4 mph N/A Snow Light Snow
11:35 PM 30.6 °F 19.8 °F 30.6 °F 100% 29.75 in 2.5 mi NNW 15.0 mph 18.4 mph N/A Snow Light Snow
11:55 PM 30.0 °F 19.1 °F 30.0 °F 100% 29.75 in 1.5 mi NNW 15.0 mph 23.0 mph 0.01 in Snow Light Snow